Time,TemperatureF,DewpointF,PressureIn,WindDirection,WindDirectionDegrees,WindSpeedMPH,WindSpeedGustMPH,Humidity,HourlyPrecipIn,Conditions,Clouds,dailyrainin,SoftwareType,DateUTC
2013-07-18 00:01:00,69.5,54.5,30.11,NNE,12,4.0,12.0,59,0.00,,,0.00,WeatherTracker,2013-07-18 06:01:00,
2013-07-18 00:06:00,69.5,54.5,30.11,NNE,28,6.0,15.0,59,0.00,,,0.00,WeatherTracker,2013-07-18 06:06:00,
2013-07-18 00:11:00,69.5,54.5,30.11,WNW,294,7.0,15.0,59,0.00,,,0.00,WeatherTracker,2013-07-18 06:11:00,
2013-07-18 00:16:00,69.4,54.4,30.11,NNW,333,6.0,12.0,59,0.00,,,0.00,WeatherTracker,2013-07-18 06:16:00,
2013-07-18 00:21:00,69.3,54.8,30.11,NNW,342,7.0,14.0,60,0.00,,,0.00,WeatherTracker,2013-07-18 06:21:00,
2013-07-18 00:26:00,69.4,54.4,30.11,NNW,327,3.0,14.0,59,0.00,,,0.00,WeatherTracker,2013-07-18 06:26:00,
2013-07-18 00:31:00,69.4,54.4,30.10,NNE,22,3.0,10.0,59,0.00,,,0.00,WeatherTracker,2013-07-18 06:31:00,
2013-07-18 00:37:00,69.4,54.4,30.10,NNW,333,6.0,8.0,59,0.00,,,0.00,WeatherTracker,2013-07-18 06:37:00,
2013-07-18 00:42:00,69.5,54.5,30.10,NNE,24,4.0,8.0,59,0.00,,,0.00,WeatherTracker,2013-07-18 06:42:00,
2013-07-18 00:47:00,69.5,54.5,30.10,ENE,59,5.0,8.0,59,0.00,,,0.00,WeatherTracker,2013-07-18 06:47:00,
2013-07-18 00:52:00,69.5,54.5,30.10,NNW,347,4.0,9.0,59,0.00,,,0.00,WeatherTracker,2013-07-18 06:52:00,
2013-07-18 00:57:00,69.4,54.4,30.10,NNE,27,4.0,9.0,59,0.00,,,0.00,WeatherTracker,2013-07-18 06:57:00,
2013-07-18 01:02:00,69.4,54.4,30.10,North,11,5.0,9.0,59,0.00,,,0.00,WeatherTracker,2013-07-18 07:02:00,
2013-07-18 01:07:00,69.3,54.3,30.10,NW,321,4.0,9.0,59,0.00,,,0.00,WeatherTracker,2013-07-18 07:07:00,
2013-07-18 01:12:00,69.2,54.3,30.10,NNW,342,3.0,9.0,59,0.00,,,0.00,WeatherTracker,2013-07-18 07:12:00,
2013-07-18 01:17:00,69.0,54.5,30.10,NNW,333,4.0,8.0,60,0.00,,,0.00,WeatherTracker,2013-07-18 07:17:00,
2013-07-18 01:22:00,68.8,54.3,30.10,NW,321,6.0,16.0,60,0.00,,,0.00,WeatherTracker,2013-07-18 07:22:00,
2013-07-18 01:28:00,68.8,54.8,30.10,NE,37,3.0,16.0,61,0.00,,,0.00,WeatherTracker,2013-07-18 07:28:00,
2013-07-18 01:33:00,68.7,54.7,30.10,North,360,7.0,10.0,61,0.00,,,0.00,WeatherTracker,2013-07-18 07:33:00,
2013-07-18 01:38:00,68.5,54.5,30.10,North,355,4.0,10.0,61,0.00,,,0.00,WeatherTracker,2013-07-18 07:38:00,
2013-07-18 01:43:00,68.6,54.6,30.10,NNW,333,2.0,12.0,61,0.00,,,0.00,WeatherTracker,2013-07-18 07:43:00,
2013-07-18 01:48:00,68.5,54.5,30.10,NW,316,6.0,12.0,61,0.00,,,0.00,WeatherTracker,2013-07-18 07:48:00,
2013-07-18 01:53:00,68.4,54.4,30.10,NNW,336,3.0,10.0,61,0.00,,,0.00,WeatherTracker,2013-07-18 07:53:00,
2013-07-18 01:58:00,68.3,54.3,30.10,NNW,333,4.0,10.0,61,0.00,,,0.00,WeatherTracker,2013-07-18 07:58:00,
2013-07-18 02:03:00,68.3,54.8,30.10,North,360,2.0,10.0,62,0.00,,,0.00,WeatherTracker,2013-07-18 08:03:00,
2013-07-18 02:08:00,68.2,54.2,30.09,NW,321,5.0,8.0,61,0.00,,,0.00,WeatherTracker,2013-07-18 08:08:00,
2013-07-18 02:13:00,68.1,54.1,30.09,North,11,4.0,8.0,61,0.00,,,0.00,WeatherTracker,2013-07-18 08:13:00,
2013-07-18 02:18:00,68.0,54.0,30.09,NNW,337,4.0,8.0,61,0.00,,,0.00,WeatherTracker,2013-07-18 08:18:00,
2013-07-18 02:23:00,68.0,54.0,30.09,NW,321,3.0,8.0,61,0.00,,,0.00,WeatherTracker,2013-07-18 08:23:00,
2013-07-18 02:28:00,67.9,53.9,30.09,NNW,331,3.0,8.0,61,0.00,,,0.00,WeatherTracker,2013-07-18 08:28:00,
2013-07-18 02:33:00,67.9,53.9,30.09,NW,308,4.0,7.0,61,0.00,,,0.00,WeatherTracker,2013-07-18 08:33:00,
2013-07-18 02:38:00,67.9,53.5,30.08,NNW,328,5.0,10.0,60,0.00,,,0.00,WeatherTracker,2013-07-18 08:38:00,
2013-07-18 02:43:00,67.8,53.9,30.08,NNW,331,2.0,10.0,61,0.00,,,0.00,WeatherTracker,2013-07-18 08:43:00,
2013-07-18 02:48:00,67.7,53.3,30.08,NW,315,3.0,7.0,60,0.00,,,0.00,WeatherTracker,2013-07-18 08:48:00,
2013-07-18 02:53:00,67.6,52.8,30.07,NNW,329,3.0,8.0,59,0.00,,,0.00,WeatherTracker,2013-07-18 08:53:00,
2013-07-18 02:58:00,67.7,52.8,30.07,NNW,338,3.0,8.0,59,0.00,,,0.00,WeatherTracker,2013-07-18 08:58:00,
2013-07-18 03:03:00,67.7,52.4,30.07,NNW,333,5.0,7.0,58,0.00,,,0.00,WeatherTracker,2013-07-18 09:03:00,
2013-07-18 03:04:00,67.7,52.4,30.07,North,351,5.0,6.0,58,0.00,,,0.00,WeatherTracker,2013-07-18 09:04:00,
2013-07-18 03:09:00,67.7,52.4,30.07,NW,323,8.0,8.0,58,0.00,,,0.00,WeatherTracker,2013-07-18 09:09:00,
2013-07-18 03:14:00,67.7,52.4,30.07,NNW,344,1.0,8.0,58,0.00,,,0.00,WeatherTracker,2013-07-18 09:14:00,
2013-07-18 03:19:00,67.7,52.4,30.07,NNW,337,3.0,8.0,58,0.00,,,0.00,WeatherTracker,2013-07-18 09:19:00,
2013-07-18 03:24:00,67.7,52.4,30.07,NNW,344,4.0,7.0,58,0.00,,,0.00,WeatherTracker,2013-07-18 09:24:00,
2013-07-18 03:29:00,67.8,52.5,30.07,NNW,329,3.0,7.0,58,0.00,,,0.00,WeatherTracker,2013-07-18 09:29:00,
2013-07-18 03:34:00,67.7,52.4,30.06,NNW,340,2.0,5.0,58,0.00,,,0.00,WeatherTracker,2013-07-18 09:34:00,
2013-07-18 03:39:00,67.6,52.8,30.06,NNW,331,2.0,6.0,59,0.00,,,0.00,WeatherTracker,2013-07-18 09:39:00,
2013-07-18 03:44:00,67.2,53.3,30.06,NNW,331,2.0,6.0,61,0.00,,,0.00,WeatherTracker,2013-07-18 09:44:00,
2013-07-18 03:49:00,66.8,52.9,30.07,NNW,331,0.0,3.0,61,0.00,,,0.00,WeatherTracker,2013-07-18 09:49:00,
2013-07-18 03:54:00,66.5,53.1,30.06,NNW,331,0.0,3.0,62,0.00,,,0.00,WeatherTracker,2013-07-18 09:54:00,
2013-07-18 03:59:00,66.3,53.3,30.06,NNW,331,0.0,3.0,63,0.00,,,0.00,WeatherTracker,2013-07-18 09:59:00,
2013-07-18 04:04:00,65.9,53.4,30.06,NNW,331,0.0,3.0,64,0.00,,,0.00,WeatherTracker,2013-07-18 10:04:00,
2013-07-18 04:09:00,65.6,53.5,30.06,NNW,331,0.0,1.0,65,0.00,,,0.00,WeatherTracker,2013-07-18 10:09:00,
2013-07-18 04:14:00,65.7,53.6,30.06,NNW,331,0.0,1.0,65,0.00,,,0.00,WeatherTracker,2013-07-18 10:14:00,
2013-07-18 04:19:00,65.6,53.5,30.06,NNW,331,0.0,2.0,65,0.00,,,0.00,WeatherTracker,2013-07-18 10:19:00,
2013-07-18 04:25:00,65.2,53.5,30.07,NNW,331,0.0,2.0,66,0.00,,,0.00,WeatherTracker,2013-07-18 10:25:00,
2013-07-18 04:30:00,65.2,53.5,30.07,NNW,331,1.0,2.0,66,0.00,,,0.00,WeatherTracker,2013-07-18 10:30:00,
2013-07-18 04:35:00,65.2,53.1,30.07,NNW,331,0.0,2.0,65,0.00,,,0.00,WeatherTracker,2013-07-18 10:35:00,
2013-07-18 04:40:00,65.1,53.0,30.07,NNW,331,0.0,1.0,65,0.00,,,0.00,WeatherTracker,2013-07-18 10:40:00,
2013-07-18 04:45:00,64.9,53.3,30.06,NNW,331,0.0,1.0,66,0.00,,,0.00,WeatherTracker,2013-07-18 10:45:00,
2013-07-18 04:50:00,64.7,53.1,30.06,NNW,331,0.0,1.0,66,0.00,,,0.00,WeatherTracker,2013-07-18 10:50:00,
2013-07-18 04:55:00,64.6,53.0,30.06,NNW,331,0.0,0.0,66,0.00,,,0.00,WeatherTracker,2013-07-18 10:55:00,
2013-07-18 05:00:00,64.4,53.6,30.06,NNW,331,0.0,0.0,68,0.00,,,0.00,WeatherTracker,2013-07-18 11:00:00,
2013-07-18 05:05:00,64.3,53.5,30.07,NNW,331,0.0,0.0,68,0.00,,,0.00,WeatherTracker,2013-07-18 11:05:00,
2013-07-18 05:10:00,64.3,53.9,30.07,NNW,331,0.0,0.0,69,0.00,,,0.00,WeatherTracker,2013-07-18 11:10:00,
2013-07-18 05:15:00,63.9,53.5,30.07,NNW,331,0.0,0.0,69,0.00,,,0.00,WeatherTracker,2013-07-18 11:15:00,
2013-07-18 05:20:00,64.0,53.6,30.07,NNW,331,0.0,0.0,69,0.00,,,0.00,WeatherTracker,2013-07-18 11:20:00,
2013-07-18 05:25:00,64.2,53.8,30.07,NNW,331,0.0,0.0,69,0.00,,,0.00,WeatherTracker,2013-07-18 11:25:00,
2013-07-18 05:30:00,63.9,53.9,30.07,NNW,331,0.0,0.0,70,0.00,,,0.00,WeatherTracker,2013-07-18 11:30:00,
2013-07-18 05:35:00,63.5,53.9,30.07,NNW,331,0.0,0.0,71,0.00,,,0.00,WeatherTracker,2013-07-18 11:35:00,
2013-07-18 05:40:00,63.7,54.1,30.07,NNW,331,0.0,0.0,71,0.00,,,0.00,WeatherTracker,2013-07-18 11:40:00,
2013-07-18 05:45:00,63.6,54.0,30.07,NNW,331,0.0,0.0,71,0.00,,,0.00,WeatherTracker,2013-07-18 11:45:00,
2013-07-18 05:50:00,63.8,54.2,30.07,NNW,331,0.0,0.0,71,0.00,,,0.00,WeatherTracker,2013-07-18 11:50:00,
2013-07-18 05:55:00,63.6,54.0,30.07,NNW,331,0.0,0.0,71,0.00,,,0.00,WeatherTracker,2013-07-18 11:55:00,
2013-07-18 06:00:00,63.6,54.4,30.08,NNW,331,0.0,0.0,72,0.00,,,0.00,WeatherTracker,2013-07-18 12:00:00,
2013-07-18 06:05:00,63.5,54.3,30.08,NNW,331,0.0,0.0,72,0.00,,,0.00,WeatherTracker,2013-07-18 12:05:00,
2013-07-18 06:10:00,63.6,54.4,30.08,NNW,331,0.0,0.0,72,0.00,,,0.00,WeatherTracker,2013-07-18 12:10:00,
2013-07-18 06:16:00,63.7,54.5,30.08,NNW,331,0.0,1.0,72,0.00,,,0.00,WeatherTracker,2013-07-18 12:16:00,
2013-07-18 06:21:00,63.9,54.7,30.08,NNW,331,0.0,1.0,72,0.00,,,0.00,WeatherTracker,2013-07-18 12:21:00,
2013-07-18 06:26:00,64.0,54.8,30.08,NNW,331,0.0,1.0,72,0.00,,,0.00,WeatherTracker,2013-07-18 12:26:00,
2013-07-18 06:31:00,64.1,54.9,30.08,NNW,331,0.0,1.0,72,0.00,,,0.00,WeatherTracker,2013-07-18 12:31:00,
2013-07-18 06:36:00,64.2,55.0,30.08,NNW,329,0.0,2.0,72,0.00,,,0.00,WeatherTracker,2013-07-18 12:36:00,
2013-07-18 06:41:00,64.5,54.9,30.08,SW,236,0.0,3.0,71,0.00,,,0.00,WeatherTracker,2013-07-18 12:41:00,
2013-07-18 06:46:00,64.8,55.2,30.08,WSW,238,0.0,3.0,71,0.00,,,0.00,WeatherTracker,2013-07-18 12:46:00,
2013-07-18 06:51:00,64.9,55.3,30.08,WSW,238,0.0,2.0,71,0.00,,,0.00,WeatherTracker,2013-07-18 12:51:00,
2013-07-18 06:56:00,65.0,55.4,30.08,WSW,238,0.0,2.0,71,0.00,,,0.00,WeatherTracker,2013-07-18 12:56:00,
2013-07-18 07:01:00,65.0,55.4,30.09,WSW,238,0.0,2.0,71,0.00,,,0.00,WeatherTracker,2013-07-18 13:01:00,
2013-07-18 07:06:00,65.2,55.6,30.08,WSW,238,1.0,2.0,71,0.00,,,0.00,WeatherTracker,2013-07-18 13:06:00,
2013-07-18 07:11:00,65.3,55.3,30.09,WSW,238,0.0,1.0,70,0.00,,,0.00,WeatherTracker,2013-07-18 13:11:00,
2013-07-18 07:16:00,65.6,55.9,30.09,WSW,238,0.0,1.0,71,0.00,,,0.00,WeatherTracker,2013-07-18 13:16:00,
2013-07-18 07:21:00,65.9,55.8,30.08,WSW,238,0.0,3.0,70,0.00,,,0.00,WeatherTracker,2013-07-18 13:21:00,
2013-07-18 07:26:00,66.6,55.7,30.09,WSW,238,0.0,3.0,68,0.00,,,0.00,WeatherTracker,2013-07-18 13:26:00,
2013-07-18 07:31:00,66.4,55.5,30.08,WSW,238,0.0,2.0,68,0.00,,,0.00,WeatherTracker,2013-07-18 13:31:00,
2013-07-18 07:36:00,66.5,55.6,30.09,WSW,238,0.0,0.0,68,0.00,,,0.00,WeatherTracker,2013-07-18 13:36:00,
2013-07-18 07:41:00,66.5,55.2,30.09,WSW,238,0.0,0.0,67,0.00,,,0.00,WeatherTracker,2013-07-18 13:41:00,
2013-07-18 07:46:00,66.3,55.4,30.08,WSW,238,0.0,0.0,68,0.00,,,0.00,WeatherTracker,2013-07-18 13:46:00,
2013-07-18 07:52:00,66.2,55.3,30.08,WSW,238,0.0,0.0,68,0.00,,,0.00,WeatherTracker,2013-07-18 13:52:00,
2013-07-18 07:57:00,66.2,55.3,30.08,WSW,238,0.0,1.0,68,0.00,,,0.00,WeatherTracker,2013-07-18 13:57:00,
2013-07-18 08:02:00,66.0,55.5,30.08,WSW,238,0.0,1.0,69,0.00,,,0.00,WeatherTracker,2013-07-18 14:02:00,
2013-07-18 08:07:00,66.1,55.6,30.08,WSW,238,0.0,1.0,69,0.00,,,0.00,WeatherTracker,2013-07-18 14:07:00,
2013-07-18 08:12:00,66.1,55.6,30.08,WSW,238,0.0,0.0,69,0.00,,,0.00,WeatherTracker,2013-07-18 14:12:00,
2013-07-18 08:17:00,66.5,55.6,30.08,WSW,238,0.0,0.0,68,0.00,,,0.00,WeatherTracker,2013-07-18 14:17:00,
2013-07-18 08:22:00,67.2,55.9,30.09,WSW,238,0.0,0.0,67,0.00,,,0.00,WeatherTracker,2013-07-18 14:22:00,
2013-07-18 08:27:00,67.4,56.1,30.09,WSW,238,0.0,1.0,67,0.00,,,0.00,WeatherTracker,2013-07-18 14:27:00,
2013-07-18 08:32:00,68.7,56.9,30.09,WSW,238,1.0,1.0,66,0.00,,,0.00,WeatherTracker,2013-07-18 14:32:00,
2013-07-18 08:37:00,69.7,56.1,30.08,WSW,238,1.0,1.0,62,0.00,,,0.00,WeatherTracker,2013-07-18 14:37:00,
2013-07-18 08:42:00,69.7,55.2,30.08,NNW,337,1.0,3.0,60,0.00,,,0.00,WeatherTracker,2013-07-18 14:42:00,
2013-07-18 08:47:00,70.3,56.2,30.08,ESE,108,1.0,3.0,61,0.00,,,0.00,WeatherTracker,2013-07-18 14:47:00,
2013-07-18 08:52:00,70.7,55.7,30.08,South,185,1.0,2.0,59,0.00,,,0.00,WeatherTracker,2013-07-18 14:52:00,
2013-07-18 08:57:00,71.2,55.2,30.08,South,186,0.0,3.0,57,0.00,,,0.00,WeatherTracker,2013-07-18 14:57:00,
2013-07-18 09:02:00,71.9,55.3,30.08,South,186,0.0,3.0,56,0.00,,,0.00,WeatherTracker,2013-07-18 15:02:00,
2013-07-18 09:07:00,72.6,55.5,30.08,South,186,1.0,3.0,55,0.00,,,0.00,WeatherTracker,2013-07-18 15:07:00,
2013-07-18 09:12:00,72.2,55.6,30.08,SE,130,1.0,4.0,56,0.00,,,0.00,WeatherTracker,2013-07-18 15:12:00,
2013-07-18 09:17:00,72.7,55.1,30.08,SSE,164,0.0,4.0,54,0.00,,,0.00,WeatherTracker,2013-07-18 15:17:00,
2013-07-18 09:23:00,72.5,54.9,30.07,East,96,1.0,3.0,54,0.00,,,0.00,WeatherTracker,2013-07-18 15:23:00,
2013-07-18 09:28:00,72.9,54.8,30.07,SE,141,2.0,3.0,53,0.00,,,0.00,WeatherTracker,2013-07-18 15:28:00,
2013-07-18 09:33:00,73.8,55.1,30.07,WSW,247,0.0,3.0,52,0.00,,,0.00,WeatherTracker,2013-07-18 15:33:00,
2013-07-18 09:38:00,73.8,55.1,30.07,North,5,1.0,3.0,52,0.00,,,0.00,WeatherTracker,2013-07-18 15:38:00,
2013-07-18 09:43:00,73.9,54.6,30.07,ENE,61,0.0,3.0,51,0.00,,,0.00,WeatherTracker,2013-07-18 15:43:00,
2013-07-18 09:48:00,75.2,56.3,30.07,North,355,2.0,3.0,52,0.00,,,0.00,WeatherTracker,2013-07-18 15:48:00,
2013-07-18 09:53:00,75.7,54.6,30.06,SSE,157,1.0,4.0,48,0.00,,,0.00,WeatherTracker,2013-07-18 15:53:00,
2013-07-18 09:58:00,75.2,54.1,30.06,SSW,203,1.0,5.0,48,0.00,,,0.00,WeatherTracker,2013-07-18 15:58:00,
2013-07-18 10:03:00,75.6,54.5,30.06,East,101,1.0,5.0,48,0.00,,,0.00,WeatherTracker,2013-07-18 16:03:00,
2013-07-18 10:08:00,75.6,53.9,30.05,SSE,163,1.0,4.0,47,0.00,,,0.00,WeatherTracker,2013-07-18 16:08:00,
2013-07-18 10:13:00,75.4,54.9,30.06,SSE,158,0.0,3.0,49,0.00,,,0.00,WeatherTracker,2013-07-18 16:13:00,
2013-07-18 10:18:00,76.9,53.9,30.05,NNW,331,0.0,3.0,45,0.00,,,0.00,WeatherTracker,2013-07-18 16:18:00,
2013-07-18 10:23:00,77.5,54.5,30.05,South,172,0.0,3.0,45,0.00,,,0.00,WeatherTracker,2013-07-18 16:23:00,
2013-07-18 10:29:00,76.2,53.9,30.05,SSW,207,1.0,3.0,46,0.00,,,0.00,WeatherTracker,2013-07-18 16:29:00,
2013-07-18 10:34:00,76.8,53.8,30.05,SSE,161,0.0,4.0,45,0.00,,,0.00,WeatherTracker,2013-07-18 16:34:00,
2013-07-18 10:39:00,76.4,53.5,30.05,ESE,117,1.0,4.0,45,0.00,,,0.00,WeatherTracker,2013-07-18 16:39:00,
2013-07-18 10:44:00,76.3,54.0,30.05,SE,130,2.0,5.0,46,0.00,,,0.00,WeatherTracker,2013-07-18 16:44:00,
2013-07-18 10:49:00,76.7,53.1,30.05,ENE,60,2.0,5.0,44,0.00,,,0.00,WeatherTracker,2013-07-18 16:49:00,
2013-07-18 10:54:00,76.0,53.7,30.05,NNE,23,4.0,6.0,46,0.00,,,0.00,WeatherTracker,2013-07-18 16:54:00,
2013-07-18 10:59:00,76.9,54.5,30.04,ENE,76,0.0,6.0,46,0.00,,,0.00,WeatherTracker,2013-07-18 16:59:00,
2013-07-18 11:04:00,78.7,54.9,30.04,WNW,292,0.0,4.0,44,0.00,,,0.00,WeatherTracker,2013-07-18 17:04:00,
2013-07-18 11:09:00,80.0,55.5,30.04,NE,37,1.0,6.0,43,0.00,,,0.00,WeatherTracker,2013-07-18 17:09:00,
2013-07-18 11:14:00,80.1,55.6,30.04,NNW,340,2.0,6.0,43,0.00,,,0.00,WeatherTracker,2013-07-18 17:14:00,
2013-07-18 11:19:00,80.9,56.3,30.03,SW,219,2.0,6.0,43,0.00,,,0.00,WeatherTracker,2013-07-18 17:19:00,
2013-07-18 11:24:00,81.7,55.0,30.03,SW,234,2.0,6.0,40,0.00,,,0.00,WeatherTracker,2013-07-18 17:24:00,
2013-07-18 11:29:00,81.6,53.5,30.03,South,180,1.0,4.0,38,0.00,,,0.00,WeatherTracker,2013-07-18 17:29:00,
2013-07-18 11:34:00,80.9,54.3,30.03,South,169,0.0,4.0,40,0.00,,,0.00,WeatherTracker,2013-07-18 17:34:00,
2013-07-18 11:39:00,80.4,53.8,30.03,South,177,1.0,5.0,40,0.00,,,0.00,WeatherTracker,2013-07-18 17:39:00,
2013-07-18 11:44:00,81.2,55.2,30.02,East,81,2.0,5.0,41,0.00,,,0.00,WeatherTracker,2013-07-18 17:44:00,
2013-07-18 11:49:00,81.1,54.5,30.02,East,101,1.0,6.0,40,0.00,,,0.00,WeatherTracker,2013-07-18 17:49:00,
2013-07-18 11:54:00,81.4,52.6,30.02,ENE,74,2.0,7.0,37,0.00,,,0.00,WeatherTracker,2013-07-18 17:54:00,
2013-07-18 12:00:00,80.2,53.7,30.02,East,81,2.0,7.0,40,0.00,,,0.00,WeatherTracker,2013-07-18 18:00:00,
2013-07-18 12:05:00,81.6,53.5,30.02,SE,130,1.0,6.0,38,0.00,,,0.00,WeatherTracker,2013-07-18 18:05:00,
2013-07-18 12:10:00,80.7,52.7,30.02,SE,134,5.0,9.0,38,0.00,,,0.00,WeatherTracker,2013-07-18 18:10:00,
2013-07-18 12:15:00,80.7,53.4,30.01,WSW,258,2.0,9.0,39,0.00,,,0.00,WeatherTracker,2013-07-18 18:15:00,
2013-07-18 12:20:00,81.2,52.4,30.01,SSE,151,2.0,9.0,37,0.00,,,0.00,WeatherTracker,2013-07-18 18:20:00,
2013-07-18 12:25:00,81.0,53.0,30.01,North,360,0.0,9.0,38,0.00,,,0.00,WeatherTracker,2013-07-18 18:25:00,
2013-07-18 12:30:00,81.7,52.9,30.01,ESE,121,3.0,7.0,37,0.00,,,0.00,WeatherTracker,2013-07-18 18:30:00,
2013-07-18 12:35:00,82.2,53.3,30.01,SE,131,5.0,6.0,37,0.00,,,0.00,WeatherTracker,2013-07-18 18:35:00,
2013-07-18 12:40:00,82.5,53.6,30.01,East,90,5.0,6.0,37,0.00,,,0.00,WeatherTracker,2013-07-18 18:40:00,
2013-07-18 12:45:00,82.5,53.6,30.00,North,351,3.0,6.0,37,0.00,,,0.00,WeatherTracker,2013-07-18 18:45:00,
2013-07-18 12:50:00,81.6,53.5,30.00,SSE,156,2.0,6.0,38,0.00,,,0.00,WeatherTracker,2013-07-18 18:50:00,
2013-07-18 12:55:00,81.5,52.7,30.00,SE,135,1.0,11.0,37,0.00,,,0.00,WeatherTracker,2013-07-18 18:55:00,
2013-07-18 13:01:00,82.6,52.9,30.00,ESE,113,1.0,11.0,36,0.00,,,0.00,WeatherTracker,2013-07-18 19:01:00,
2013-07-18 13:06:00,83.0,53.3,30.00,ESE,102,3.0,9.0,36,0.00,,,0.00,WeatherTracker,2013-07-18 19:06:00,
2013-07-18 13:11:00,83.1,53.4,30.00,ESE,117,2.0,9.0,36,0.00,,,0.00,WeatherTracker,2013-07-18 19:11:00,
2013-07-18 13:16:00,83.3,53.5,29.99,NNE,28,2.0,8.0,36,0.00,,,0.00,WeatherTracker,2013-07-18 19:16:00,
2013-07-18 13:21:00,83.2,52.7,29.99,SSE,163,2.0,11.0,35,0.00,,,0.00,WeatherTracker,2013-07-18 19:21:00,
2013-07-18 13:22:00,83.2,52.7,29.99,ESE,115,3.0,11.0,35,0.00,,,0.00,WeatherTracker,2013-07-18 19:22:00,